(200906) = 1997 WF11 = 2002 AJ53

Discovered at Socorro on 2002-01-09 by LINEAR.

Orbit

Orbit type: Main Belt

Note: WebGL enabled browser required.

epoch2024-03-31.0
epoch JD2460400.5
perihelion date2023-05-25.74579
perihelion JD2460090.24579
argument of perihelion (°)231.02065
ascending node (°)227.76933
inclination (°)1.70359
eccentricity0.1482468
perihelion distance (AU)1.9968490
Tisserand w.r.t. Jupiter3.5
ΔV w.r.t. Earth (km/sec)8.8
semimajor axis (AU)2.3443986
mean anomaly (°)85.18720
mean daily motion (°/day)0.27457230
aphelion distance (AU)2.692
period (years)3.59
P-vector [x]-0.15255862
P-vector [y]0.91568724
P-vector [z]0.37181010
Q-vector [x]-0.98804925
Q-vector [y]-0.13293599
Q-vector [z]-0.07801735
absolute magnitude16.92
phase slope0.15
uncertainty0
referenceMPEC 2024-F50
observations used753
oppositions17
arc length (days)9635
first opposition used1997
last opposition used2024
residual rms (arc-secs)0.68
perturbers coarse indicatorM-v
perturbers precise indicator003Ek
first observation date used1997-11-01.0
last observation date used2024-03-19.0
computer nameMPCLINUX
JD of orbit computation2456847.864514
perihelion JD uncertainty (days)7.6740E-05
argument of perihelion uncertainty (°)1.3195E-04
ascending node uncertainty (°)1.3061E-04
inclination uncertainty (°)3.2293E-06
eccentricity uncertainty 2.5635E-08
perihelion distance uncertainty (AU)5.8316E-08
Minimum Orbit Intersection Distances (in AU)
for orbit epoch: 2460400.5, reference: E2024-GD4
Mercury1.68697
Venus1.2787
Earth1.01468
Mars0.39508
Jupiter2.45644
Saturn7.03637
Uranus16.1934
Neptune27.5

Observations

776 total observations over interval: 1997 11 01.37230 – 2024 03 19.534384
These data are available for download (format description).

Date (UT) J2000 RA J2000 Dec Magn Location Ref
1997 11 01.37230 02 40 21.10 +16 00 53.6 18.6 V 691 – Steward Observatory, Kitt Peak-Spacewatch MPS 49900
1997 11 01.38024 02 40 20.67 +16 00 52.4 18.2 V 691 – Steward Observatory, Kitt Peak-Spacewatch MPS 49900
1997 11 01.38825 02 40 20.17 +16 00 47.8 18.9 V 691 – Steward Observatory, Kitt Peak-Spacewatch MPS 49900
1997 11 22.30169 02 20 56.82 +14 03 07.1 20.0 V 691 – Steward Observatory, Kitt Peak-Spacewatch MPS 228
1997 11 22.32358 02 20 55.72 +14 03 00.5 20.1 V 691 – Steward Observatory, Kitt Peak-Spacewatch MPS 228
1997 11 22.34535 02 20 54.72 +14 02 53.7 19.6 V 691 – Steward Observatory, Kitt Peak-Spacewatch MPS 228
1997 11 28.18322 02 16 56.08 +13 36 11.4 19.7 V 691 – Steward Observatory, Kitt Peak-Spacewatch MPS 228
1997 11 28.20467 02 16 55.26 +13 36 05.8 19.7 V 691 – Steward Observatory, Kitt Peak-Spacewatch MPS 228
1997 11 28.22640 02 16 54.42 +13 36 00.7 19.6 V 691 – Steward Observatory, Kitt Peak-Spacewatch MPS 228
1997 12 04.16587 02 13 55.50 +13 14 20.1 19.8 V 691 – Steward Observatory, Kitt Peak-Spacewatch MPS 49900
1997 12 04.18964 02 13 54.86 +13 14 15.7 19.8 V 691 – Steward Observatory, Kitt Peak-Spacewatch MPS 49900
1997 12 04.21149 02 13 54.28 +13 14 11.3 19.7 V 691 – Steward Observatory, Kitt Peak-Spacewatch MPS 49900
2002 01 07.30552 08 51 34.93 +14 29 36.7 20.7   644 – Palomar Mountain/NEAT MPS 49900
2002 01 07.38114 08 51 31.42 +14 29 44.9 20.2   644 – Palomar Mountain/NEAT MPS 49900
2002 01 07.44366 08 51 28.48 +14 29 52.1 20.6   644 – Palomar Mountain/NEAT MPS 49900
2002 01 09.34093 08 50 02.04 +14 33 36.0 19.6   704 – Lincoln Laboratory ETS, New Mexico MPS 47368
2002 01 09.35592 08 50 01.32 +14 33 37.6 19.5   704 – Lincoln Laboratory ETS, New Mexico MPS 47368
2002 01 09.37096 08 50 00.53 +14 33 39.8 19.4   704 – Lincoln Laboratory ETS, New Mexico MPS 47368
2002 01 09.38600 08 49 59.85 +14 33 41.8 19.6   704 – Lincoln Laboratory ETS, New Mexico MPS 47368
2002 01 13.31222 08 46 42.63 +14 42 57.6 18.9   704 – Lincoln Laboratory ETS, New Mexico MPS 47368
2002 01 13.32739 08 46 41.77 +14 42 59.7 19.1   704 – Lincoln Laboratory ETS, New Mexico MPS 47368
2002 01 13.34256 08 46 40.90 +14 43 01.5 19.0   704 – Lincoln Laboratory ETS, New Mexico MPS 47368
2002 01 13.35772 08 46 40.06 +14 43 04.2 18.9   704 – Lincoln Laboratory ETS, New Mexico MPS 47368
2002 01 13.37289 08 46 39.17 +14 43 06.4 18.7   704 – Lincoln Laboratory ETS, New Mexico MPS 47368
2002 01 14.23662 08 45 53.29 +14 45 23.8 18.7 V 333 – Desert Eagle Observatory MPS 49900
2002 01 14.25888 08 45 52.01 +14 45 27.8 18.7 V 333 – Desert Eagle Observatory MPS 49900
2002 01 14.28086 08 45 50.76 +14 45 31.5 18.6 V 333 – Desert Eagle Observatory MPS 49900
2002 01 15.32555 08 44 53.26 +14 48 24.6 18.8   704 – Lincoln Laboratory ETS, New Mexico MPS 47368
2002 01 15.34075 08 44 52.39 +14 48 27.5 19.4   704 – Lincoln Laboratory ETS, New Mexico MPS 47368
2002 01 15.35608 08 44 51.44 +14 48 30.0 19.1   704 – Lincoln Laboratory ETS, New Mexico MPS 47368
2002 01 19.23233 08 41 09.65 +15 00 08.3 19.0 V 333 – Desert Eagle Observatory MPS 47368
2002 01 19.23933 08 41 09.19 +15 00 09.0 19.1 V 333 – Desert Eagle Observatory MPS 47368
2002 01 19.25655 08 41 08.15 +15 00 13.0 18.7 V 333 – Desert Eagle Observatory MPS 47368
2002 01 19.26348 08 41 07.68 +15 00 13.7 18.8 V 333 – Desert Eagle Observatory MPS 47368
2002 01 19.27890 08 41 06.75 +15 00 17.6 18.9 V 333 – Desert Eagle Observatory MPS 47368
2002 01 19.28602 08 41 06.34 +15 00 18.1 18.9 V 333 – Desert Eagle Observatory MPS 47368
2002 01 22.23405 08 38 09.99 +15 09 57.7 18.7   704 – Lincoln Laboratory ETS, New Mexico MPS 47368
2002 01 22.25117 08 38 08.85 +15 10 02.0 19.1   704 – Lincoln Laboratory ETS, New Mexico MPS 47368
2002 01 22.28100 08 38 06.95 +15 10 07.7 19.2   704 – Lincoln Laboratory ETS, New Mexico MPS 47368
2002 01 22.29592 08 38 06.03 +15 10 11.1 19.2   704 – Lincoln Laboratory ETS, New Mexico MPS 47368
2002 01 26.32141 08 33 59.97 +15 24 09.3 18.6   644 – Palomar Mountain/NEAT MPS 47368
2002 01 26.34281 08 33 58.60 +15 24 14.0 18.6   644 – Palomar Mountain/NEAT MPS 47368
2002 01 26.36387 08 33 57.25 +15 24 19.4 18.0   644 – Palomar Mountain/NEAT MPS 47368
2002 02 05.23645 08 24 10.61 +15 59 47.4 18.9   644 – Palomar Mountain/NEAT MPS 49900
2002 02 05.25757 08 24 09.36 +15 59 51.7 19.0   644 – Palomar Mountain/NEAT MPS 49900
2002 02 05.27850 08 24 08.14 +15 59 56.1 19.0   644 – Palomar Mountain/NEAT MPS 49900
2002 02 06.23791 08 23 15.09 +16 03 19.3 18.6   644 – Palomar Mountain/NEAT MPS 49900
2002 02 06.25819 08 23 13.92 +16 03 23.8 18.3   644 – Palomar Mountain/NEAT MPS 49900
2002 02 06.27923 08 23 12.70 +16 03 28.4 18.8   644 – Palomar Mountain/NEAT MPS 49900
2002 02 07.24639 08 22 20.25 +16 06 51.3 18.5   704 – Lincoln Laboratory ETS, New Mexico MPS 52477
2002 02 07.26086 08 22 19.47 +16 06 53.8 19.2   704 – Lincoln Laboratory ETS, New Mexico MPS 52477
2002 02 07.27526 08 22 18.62 +16 06 56.9 18.8   704 – Lincoln Laboratory ETS, New Mexico MPS 52477
2002 02 07.28994 08 22 17.81 +16 07 00.6 19.0   704 – Lincoln Laboratory ETS, New Mexico MPS 52477
2002 02 07.30452 08 22 17.05 +16 07 02.8 19.6   704 – Lincoln Laboratory ETS, New Mexico MPS 52477
2002 02 08.23032 08 21 27.98 +16 10 14.2 18.6   704 – Lincoln Laboratory ETS, New Mexico MPS 52477
2002 02 08.24457 08 21 27.16 +16 10 17.1 19.1   704 – Lincoln Laboratory ETS, New Mexico MPS 52477
2002 02 08.25888 08 21 26.39 +16 10 20.0 19.3   704 – Lincoln Laboratory ETS, New Mexico MPS 52477
2002 02 08.27315 08 21 25.61 +16 10 23.2 18.8   704 – Lincoln Laboratory ETS, New Mexico MPS 52477
2002 02 08.28755 08 21 24.85 +16 10 26.4 19.2   704 – Lincoln Laboratory ETS, New Mexico MPS 52477
2002 02 11.17376 08 18 59.71 +16 20 08.5 18.8   704 – Lincoln Laboratory ETS, New Mexico MPS 52477
2002 02 11.18789 08 18 58.99 +16 20 11.2 19.0   704 – Lincoln Laboratory ETS, New Mexico MPS 52477
2002 02 11.20202 08 18 58.28 +16 20 14.6 19.4   704 – Lincoln Laboratory ETS, New Mexico MPS 52477
2002 02 11.21616 08 18 57.55 +16 20 17.6 18.9   704 – Lincoln Laboratory ETS, New Mexico MPS 52477
2002 02 11.23029 08 18 56.81 +16 20 20.6 18.8   704 – Lincoln Laboratory ETS, New Mexico MPS 52477
2002 02 13.16168 08 17 26.93 +16 26 33.0 19.2   704 – Lincoln Laboratory ETS, New Mexico MPS 52477
2002 02 13.17653 08 17 26.33 +16 26 35.9 19.4   704 – Lincoln Laboratory ETS, New Mexico MPS 52477
2002 02 13.19140 08 17 25.55 +16 26 38.6 20.0   704 – Lincoln Laboratory ETS, New Mexico MPS 52477
2002 02 13.20627 08 17 24.80 +16 26 40.9 19.7   704 – Lincoln Laboratory ETS, New Mexico MPS 52477
2002 02 13.22117 08 17 24.09 +16 26 44.2 19.5   704 – Lincoln Laboratory ETS, New Mexico MPS 52477
2002 02 16.18285 08 15 18.81 +16 35 47.7 19.9   644 – Palomar Mountain/NEAT MPS 52477
2002 02 16.20382 08 15 17.91 +16 35 51.4 18.8   644 – Palomar Mountain/NEAT MPS 52477
2002 02 16.22475 08 15 17.03 +16 35 55.2 19.0   644 – Palomar Mountain/NEAT MPS 52477
2002 02 20.18924 08 12 55.29 +16 46 57.3 19.4   704 – Lincoln Laboratory ETS, New Mexico MPS 52477
2002 02 20.20370 08 12 54.81 +16 47 01.1 19.5   704 – Lincoln Laboratory ETS, New Mexico MPS 52477
2002 02 20.23185 08 12 53.85 +16 47 05.1 19.8   704 – Lincoln Laboratory ETS, New Mexico MPS 52477
2002 03 05.13099 08 09 02.24 +17 13 04.4 19.7   644 – Palomar Mountain/NEAT MPS 52477
2002 03 05.15192 08 09 02.11 +17 13 06.0 20.1   644 – Palomar Mountain/NEAT MPS 52477
2002 03 05.17446 08 09 01.95 +17 13 08.2 19.6   644 – Palomar Mountain/NEAT MPS 52477
2004 09 14.35608 01 01 38.29 +08 38 09.0 19.5   704 – Lincoln Laboratory ETS, New Mexico MPS 115231
2004 09 14.36737 01 01 37.77 +08 38 07.3 20.2   704 – Lincoln Laboratory ETS, New Mexico MPS 115231
2004 09 14.37866 01 01 37.36 +08 38 04.0 19.8   704 – Lincoln Laboratory ETS, New Mexico MPS 115231
2004 09 14.38998 01 01 36.92 +08 38 00.2 20.1   704 – Lincoln Laboratory ETS, New Mexico MPS 115231
2004 09 14.40128 01 01 36.30 +08 37 57.2 19.7   704 – Lincoln Laboratory ETS, New Mexico MPS 115231
2004 09 17.28866 00 59 38.67 +08 25 13.5 20.0   704 – Lincoln Laboratory ETS, New Mexico MPS 114291
2004 09 17.30034 00 59 38.10 +08 25 09.9 19.9   704 – Lincoln Laboratory ETS, New Mexico MPS 114291
